Location: Byszew
(52.1813°N, 19.2693°E)
Time: 05:24:46
(UTC+00:00)

Altair - Visible Passes

Search period start: 27 May 2022 00:00
Search period end: 06 June 2022 00:00
Orbit: 1501 x 1683 km, 47.2° (Epoch: 26 May)

Date Brightness Start Highest point End Pass type
(mag) Time Alt. Az. Time Alt. Az. Time Alt. Az.
27 May 8.3 20:38:51 10° W 20:47:54 39° SW 20:55:10 16° SSE visible
27 May 9.1 22:46:13 10° W 22:50:22 13° WSW 22:53:09 12° SW visible
28 May 8.2 20:13:36 10° W 20:22:48 41° SW 20:30:59 13° SSE visible
28 May 9.0 22:20:25 10° W 22:25:22 15° SW 22:28:59 12° SSW visible
29 May 8.2 19:48:22 10° W 19:57:40 43° SSW 20:06:51 10° SE visible
29 May 9.0 21:54:45 10° W 22:00:22 17° SW 22:04:50 12° SSW visible
30 May 8.2 19:23:09 10° W 19:32:33 45° SSW 19:41:54 10° SE visible
30 May 9.0 21:29:12 10° W 21:35:21 18° SW 21:40:45 12° SSW visible
31 May 9.0 21:03:43 10° W 21:10:19 20° SW 21:16:43 10° S visible
01 Jun 9.0 20:38:16 10° W 20:45:17 22° SW 20:52:16 10° S visible
02 Jun 8.9 20:12:53 10° W 20:20:14 23° SW 20:27:35 10° S visible
03 Jun 8.9 19:47:32 10° W 19:55:11 25° SW 20:02:51 10° S visible
